GW2949 Weather Reports


time (UTC)temp
C
wind
direction
speed
KPH
gust
KPH
rain 1hr
cm
rain 24hr
cm
rain mn
cm
humidity
%
barometer
mb
20260508115119 15 180 3.2 4.8 0.00 0.00 0.00 22 1026.4
20260508114119 14 53 1.6 4.8 0.00 0.00 0.00 24 1026.4
20260508113118 14 210 1.6 4.8 0.00 0.00 0.00 23 1026.4
20260508112119 13 34 6.4 11.3 0.00 0.00 0.00 24 1026.5
20260508111118 13 327 3.2 6.4 0.00 0.00 0.00 23 1026.5
20260508110118 13 353 3.2 3.2 0.00 0.00 0.00 23 1026.6
20260508105138 13 12 4.8 9.7 0.00 0.00 0.00 24 1026.5
20260508104118 13 348 4.8 11.3 0.00 0.00 0.00 25 1026.4
20260508103118 13 2 6.4 14.5 0.00 0.00 0.00 27 1026.5
20260508102119 13 26 4.8 9.7 0.00 0.00 0.00 26 1026.4
20260508101138 13 151 3.2 6.4 0.00 0.00 0.00 26 1026.4
20260508100118 13 39 6.4 9.7 0.00 0.00 0.00 27 1026.4
20260508095117 13 343 1.6 4.8 0.00 0.00 0.00 28 1026.3
20260508094118 13 16 3.2 6.4 0.00 0.00 0.00 28 1026.3
20260508093117 13 354 3.2 6.4 0.00 0.00 0.00 29 1026.3
20260508092118 13 338 4.8 9.7 0.00 0.00 0.00 29 1026.3
20260508091138 12 40 1.6 4.8 0.00 0.00 0.00 31 1026.3
20260508090119 12 5 4.8 8.0 0.00 0.00 0.00 28 1026.4
20260508085117 11 331 4.8 9.7 0.00 0.00 0.00 33 1026.2
20260508084119 11 6 4.8 9.7 0.00 0.00 0.00 34 1026.2
20260508083137 11 15 6.4 12.9 0.00 0.00 0.00 34 1026.0
20260508082119 11 8 3.2 9.7 0.00 0.00 0.00 34 1026.2
20260508081138 10 355 3.2 8.0 0.00 0.00 0.00 35 1026.0
20260508080138 10 22 11.3 17.7 0.00 0.00 0.00 36 1026.0
20260508075118 10 47 1.6 6.4 0.00 0.00 0.00 36 1025.9
20260508074119 10 39 3.2 8.0 0.00 0.00 0.00 37 1025.9
20260508073118 10 59 4.8 11.3 0.00 0.00 0.00 37 1025.8
20260508072118 10 15 4.8 6.4 0.00 0.00 0.00 38 1025.9
20260508071138 10 23 6.4 16.1 0.00 0.00 0.00 39 1025.8
20260508070139 10 29 4.8 9.7 0.00 0.00 0.00 42 1025.7
20260508065117 10 4 3.2 8.0 0.00 0.00 0.00 40 1025.6
20260508064118 9 6 4.8 14.5 0.00 0.00 0.00 44 1025.5
20260508063119 8 13 4.8 6.4 0.00 0.00 0.00 44 1025.4
20260508062119 8 343 6.4 12.9 0.00 0.00 0.00 44 1025.3
20260508061118 8 8 3.2 4.8 0.00 0.00 0.00 47 1025.3
20260508060118 8 345 3.2 6.4 0.00 0.00 0.00 47 1025.2
20260508055117 8 14 3.2 9.7 0.00 0.00 0.00 48 1025.2
20260508054138 8 21 3.2 6.4 0.00 0.00 0.00 49 1025.1
20260508053158 7 341 3.2 4.8 0.00 0.00 0.00 50 1025.1
20260508052119 7 345 3.2 8.0 0.00 0.00 0.00 51 1024.9
20260508051118 7 347 1.6 8.0 0.00 0.00 0.00 53 1024.9
20260508050117 7 11 6.4 11.3 0.00 0.00 0.00 52 1024.7
20260508045118 5 4 3.2 4.8 0.00 0.00 0.00 60 1024.1
20260508044119 4 45 1.6 3.2 0.00 0.00 0.00 60 1023.9
20260508043118 4 355 1.6 3.2 0.00 0.00 0.00 60 1023.9
20260508042118 4 24 3.2 6.4 0.00 0.00 0.00 60 1023.8
20260508041118 4 14 3.2 6.4 0.00 0.00 0.00 60 1023.8
20260508040118 3 0 3.2 4.8 0.00 0.00 0.00 61 1023.7
20260508035117 3 344 1.6 3.2 0.00 0.00 0.00 61 1023.5
20260508034118 3 358 1.6 3.2 0.00 0.00 0.00 61 1023.5
20260508033118 3 1 3.2 4.8 0.00 0.00 0.00 61 1023.5
20260508032119 4 333 3.2 6.4 0.00 0.00 0.00 60 1023.4
20260508031118 4 9 1.6 4.8 0.00 0.00 0.00 60 1023.3
20260508030119 4 353 3.2 4.8 0.00 0.00 0.00 60 1023.2
20260508025117 4 292 1.6 3.2 0.00 0.00 0.00 59 1023.0
20260508024118 4 4 3.2 6.4 0.00 0.00 0.00 59 1022.9
20260508023119 4 12 1.6 3.2 0.00 0.00 0.00 58 1022.7
20260508022120 4 342 3.2 6.4 0.00 0.00 0.00 58 1022.7
20260508021139 5 74 1.6 3.2 0.00 0.00 0.00 58 1022.6
20260508020118 5 0 4.8 9.7 0.00 0.00 0.00 57 1022.4
20260508015118 5 9 3.2 6.4 0.00 0.00 0.00 57 1022.4
20260508014117 5 340 1.6 6.4 0.00 0.00 0.00 56 1022.3
20260508013117 5 359 4.8 9.7 0.00 0.00 0.00 55 1022.1
20260508012139 5 343 3.2 4.8 0.00 0.00 0.00 55 1022.0
20260508011138 5 10 3.2 8.0 0.00 0.00 0.00 54 1022.0
20260508010118 5 21 6.4 9.7 0.00 0.00 0.00 54 1021.9
20260508005118 6 358 4.8 9.7 0.00 0.00 0.00 52 1021.2
20260508004119 6 326 3.2 9.7 0.00 0.00 0.00 51 1021.1
20260508003118 6 8 6.4 11.3 0.00 0.00 0.00 50 1021.0
20260508002119 6 1 4.8 11.3 0.00 0.00 0.00 50 1020.9
20260508001117 6 348 4.8 8.0 0.00 0.00 0.00 50 1020.8
20260508000118 6 356 4.8 6.4 0.00 0.00 0.00 51 1020.7
20260507235118 6 16 4.8 11.3 0.00 0.00 0.00 50 1020.5
20260507234118 6 329 4.8 8.0 0.00 0.00 0.00 49 1020.5
20260507233118 6 348 4.8 9.7 0.00 0.00 0.00 51 1020.3
20260507232118 6 354 3.2 6.4 0.00 0.00 0.00 50 1020.2
20260507231119 7 355 3.2 6.4 0.00 0.00 0.00 49 1020.1
20260507230138 7 345 3.2 6.4 0.00 0.00 0.00 48 1020.1
20260507225217 7 304 3.2 4.8 0.00 0.00 0.00 47 1020.0
20260507224119 7 339 3.2 4.8 0.00 0.00 0.00 47 1019.9
20260507223117 7 321 3.2 6.4 0.00 0.00 0.00 46 1019.9
20260507222117 7 336 3.2 4.8 0.00 0.00 0.00 45 1019.8
20260507221117 7 335 1.6 4.8 0.00 0.00 0.00 45 1019.7
20260507220139 7 344 1.6 4.8 0.00 0.00 0.00 43 1019.7
20260507215118 7 357 3.2 8.0 0.00 0.00 0.00 43 1019.7
20260507214118 7 339 1.6 3.2 0.00 0.00 0.00 43 1019.5
20260507213118 7 331 3.2 4.8 0.00 0.00 0.00 41 1019.4
20260507212119 7 345 3.2 4.8 0.00 0.00 0.00 42 1019.3
20260507211117 7 338 3.2 6.4 0.00 0.00 0.00 41 1019.1
20260507210118 7 340 3.2 6.4 0.00 0.00 0.00 43 1019.0
20260507205117 7 302 1.6 3.2 0.00 0.00 0.00 38 1018.1
20260507204118 7 322 1.6 4.8 0.00 0.00 0.00 43 1018.0
20260507203117 7 38 1.6 3.2 0.00 0.00 0.00 52 1018.0
20260507202138 7 37 1.6 1.6 0.00 0.00 0.00 52 1017.9
20260507201118 7 37 1.6 1.6 0.00 0.00 0.00 53 1017.8
20260507200117 8 207 1.6 3.2 0.00 0.00 0.00 51 1017.7
20260507195117 8 65 1.6 1.6 0.00 0.00 0.00 51 1017.6
20260507194119 8 22 0.0 1.6 0.00 0.00 0.00 49 1017.6
20260507193137 8 153 1.6 3.2 0.00 0.00 0.00 49 1017.5
20260507192118 8 169 1.6 3.2 0.00 0.00 0.00 45 1017.5
20260507191138 8 157 1.6 1.6 0.00 0.00 0.00 43 1017.4
20260507190139 9 78 1.6 3.2 0.00 0.00 0.00 43 1017.3
20260507185118 9 15 1.6 4.8 0.00 0.00 0.00 41 1017.3
20260507184119 9 40 3.2 6.4 0.00 0.00 0.00 43 1017.1
20260507183136 9 171 3.2 9.7 0.00 0.00 0.00 49 1017.0
20260507182118 9 185 3.2 6.4 0.00 0.00 0.00 45 1017.0
20260507181117 10 101 3.2 4.8 0.00 0.00 0.00 44 1017.0
20260507180119 10 143 3.2 6.4 0.00 0.00 0.00 46 1017.0
20260507175117 10 78 3.2 6.4 0.00 0.00 0.00 42 1017.0
20260507174118 10 205 4.8 8.0 0.00 0.00 0.00 41 1017.0
20260507173118 10 198 3.2 4.8 0.00 0.00 0.00 45 1017.0
20260507172118 9 186 4.8 9.7 0.00 0.00 0.00 48 1017.0
20260507171118 9 229 3.2 6.4 0.00 0.00 0.00 51 1016.8
20260507170118 9 204 6.4 11.3 0.00 0.00 0.00 50 1016.8
20260507165138 8 202 12.9 16.1 0.00 0.00 0.00 52 1016.5
20260507164158 8 175 3.2 8.0 0.00 0.00 0.00 50 1016.5
20260507163118 8 207 4.8 11.3 0.00 0.00 0.00 48 1016.4
20260507162118 8 182 4.8 9.7 0.00 0.00 0.00 51 1016.4
20260507161117 8 197 8.0 14.5 0.00 0.00 0.00 55 1016.4
20260507160118 8 202 12.9 17.7 0.00 0.00 0.00 54 1016.5
20260507155118 10 195 9.7 14.5 0.00 0.00 0.00 44 1016.3
20260507154138 9 204 9.7 14.5 0.00 0.00 0.00 45 1016.4
20260507153137 8 181 4.8 11.3 0.00 0.00 0.00 52 1016.4
20260507152138 10 191 6.4 9.7 0.00 0.00 0.00 43 1016.4
20260507151118 10 153 3.2 8.0 0.00 0.00 0.00 42 1016.3
20260507150117 10 189 4.8 9.7 0.00 0.00 0.00 42 1016.4
20260507145118 10 204 4.8 9.7 0.00 0.00 0.00 51 1016.4
20260507144140 9 193 9.7 12.9 0.00 0.00 0.00 51 1016.4
20260507143119 10 204 8.0 14.5 0.00 0.00 0.00 50 1016.3
20260507142118 9 207 8.0 11.3 0.00 0.00 0.00 48 1016.2
20260507141118 9 201 8.0 19.3 0.00 0.00 0.00 46 1016.2
20260507140119 11 199 14.5 17.7 0.00 0.00 0.00 36 1016.1
20260507135118 11 183 4.8 9.7 0.00 0.00 0.00 34 1016.0
20260507134119 11 183 8.0 16.1 0.00 0.00 0.00 31 1016.0
20260507133117 12 176 4.8 8.0 0.00 0.00 0.00 24 1016.0
20260507132118 12 162 3.2 6.4 0.00 0.00 0.00 28 1016.0
20260507131117 11 199 6.4 8.0 0.00 0.00 0.00 25 1016.1
20260507130117 12 191 8.0 11.3 0.00 0.00 0.00 31 1016.0
20260507125118 11 156 3.2 8.0 0.00 0.00 0.00 40 1016.1
20260507124118 11 198 8.0 12.9 0.00 0.00 0.00 37 1016.0
20260507123118 11 204 9.7 16.1 0.00 0.00 0.00 30 1016.1
20260507122159 11 203 3.2 8.0 0.00 0.00 0.00 25 1016.1
20260507121117 11 203 4.8 11.3 0.00 0.00 0.00 29 1016.0
20260507120119 11 186 6.4 11.3 0.00 0.00 0.00 35 1016.0